Flag for Czech Republic Weather past 2 weeks in Ostrava, Czech Republic

Now
58 °F

Overcast.


Feels Like: 56 °F
Forecast: 51 / 60 °F
Wind: 8 mph from Northeast

Location: Ostrava / Mosnov

Current Time: May 22, 2015 at 6:21:35 PM

Latest Report: May 22, 2015 at 5:00 PM


Visibility: 16 mi

Pressure: 30.16 "Hg

Humidity: 63%

Dew point: 45 °F

Location of OstravaLocation

Historic Weather in Ostrava — Graph

°F

Ostrava temperature yesterday

Maximum temperature yesterday: 55 °F (at 3:00 PM)
Minimum temperature yesterday: 49 °F (at 2:00 AM)
Average temperature yesterday: 52 °F

Past Weeks' High & Low Weather Summary

 TemperatureHumidityPressure
High75 °F (May 19, 12:00 PM)99% (May 20, 7:00 AM)30.43 "Hg (May 20, 7:00 AM)
Low38 °F (May 15, 6:00 AM)34% (May 12, 3:00 PM)29.74 "Hg (May 19, 6:00 AM)
Average56 °F70%30.07 "Hg
* Reported May 7 5:00 PM — May 22 5:00 PM, Ostrava, Weather by CustomWeather, © 2015

Note: Actual official high and low records may vary slightly from our data, if they occured in-between our weather recording intervals... More about our weather records

Advertising

Ostrava weather history for previous 24 hours

 ConditionsComfort  
Time TempWeatherWind HumidityBarometerVisibility
5:00 PM
Fri, May 22
58 °FOvercast.8 mph63%30.16 "Hg16 mi
4:00 PM59 °FOvercast.8 mph60%30.18 "Hg16 mi
3:00 PM60 °FOvercast.7 mph58%30.19 "Hg16 mi
2:00 PM59 °FOvercast.8 mph60%30.20 "Hg16 mi
1:00 PM57 °FOvercast.6 mph66%30.22 "Hg12 mi
12:00 PM57 °FOvercast.8 mph63%30.23 "Hg11 mi
11:00 AM58 °FOvercast.7 mph67%30.23 "Hg9 mi
10:00 AM56 °FFog.8 mph72%30.24 "Hg6 mi
9:00 AM54 °FFog.5 mph88%30.24 "Hg4 mi
8:00 AM51 °FFog.6 mph94%30.24 "Hg4 mi
7:00 AM51 °FFog.5 mph95%30.24 "Hg4 mi
6:00 AM51 °FFog.6 mph95%30.23 "Hg4 mi
5:00 AM51 °FFog.5 mph95%30.22 "Hg4 mi
4:00 AM51 °FFog.5 mph96%30.22 "Hg4 mi
3:00 AM52 °FFog.3 mph96%30.22 "Hg4 mi
2:00 AM52 °FFog.3 mph97%30.22 "Hg4 mi
1:00 AM52 °FFog.5 mph96%30.22 "Hg4 mi
12:00 AM52 °FFog.5 mph93%30.22 "Hg4 mi
10:00 PM
Thu, May 21
52 °FLight rain. Overcast.2 mph91%30.20 "Hg5 mi
9:00 PM53 °FOvercast.3 mph86%30.19 "Hg7 mi
8:00 PM53 °FLight rain. Overcast.3 mph84%30.17 "Hg7 mi
7:00 PM54 °FOvercast.3 mph82%30.16 "Hg7 mi
6:00 PM54 °FOvercast.5 mph82%30.16 "Hg9 mi
Weather by CustomWeather, © 2015

See weather overviewHow to use our weather pages